DW4338 Bergen NO current weather conditions

sailwx.info

Wind from 171 at 13 knots gusting 34

Air temperature 11.1° C
Dewpoint 9.7° C

Last reported at 2019-Jun-19 02:31 UTC.
Time now 2019-Jun-19 03:00 UTC

Location: N 60°31' E 004°54'.
View on Google Maps.

See reports from other nearby stations

  
Tides and Currents Weather Stations Pressure Air Temp Water Temp Dewpoint Dewpoint Depression Visibility Wind Speed Wind Dir Waves Ship Positions
date/time (UTC)wind fromknots sea level pressurealtimeterstation pressurevisibilityair tempwater tempwave heightnotes
2019-Jun-19 02:31 171 13 gusting 34 11.1
2019-Jun-19 02:16 125 8 gusting 24 11.1
2019-Jun-19 02:01 193 10 gusting 25 11.1
2019-Jun-19 01:46 184 4 gusting 28 11.1
2019-Jun-19 01:31 205 9 gusting 37 11.1
2019-Jun-19 01:16 192 4 gusting 27 11.1
2019-Jun-19 01:00 211 13 gusting 30 11.1
2019-Jun-19 00:46 204 8 gusting 30 11.1
2019-Jun-19 00:31 202 11 gusting 27 11.1
2019-Jun-19 00:16 178 8 gusting 50 11.1
2019-Jun-19 00:00 209 12 gusting 34 11.1
2019-Jun-18 23:47 246 15 gusting 33 11.1
2019-Jun-18 23:30 242 17 gusting 39 11.7
2019-Jun-18 23:15 202 15 gusting 45 11.7
2019-Jun-18 23:01 144 12 gusting 35 11.7
2019-Jun-18 22:46 196 11 gusting 36 11.7
2019-Jun-18 22:31 202 17 gusting 38 11.7
2019-Jun-18 22:15 216 12 gusting 38 11.7
2019-Jun-18 22:00 233 13 gusting 39 11.7
2019-Jun-18 21:45 214 15 gusting 35 11.7
2019-Jun-18 21:30 200 16 gusting 37 11.1
2019-Jun-18 21:00 221 9 gusting 35 11.1
2019-Jun-18 20:45 216 15 gusting 35 11.7
2019-Jun-18 20:30 212 13 gusting 39 11.7
2019-Jun-18 20:15 243 9 gusting 35 11.7
2019-Jun-18 20:00 204 16 gusting 39 11.7
2019-Jun-18 19:45 165 15 gusting 34 11.7
2019-Jun-18 19:30 172 18 gusting 36 11.7
2019-Jun-18 19:15 191 13 gusting 38 11.7
2019-Jun-18 19:00 259 15 gusting 36 11.7
2019-Jun-18 18:45 248 19 gusting 37 11.7
2019-Jun-18 18:30 210 18 gusting 37 11.7
2019-Jun-18 18:15 198 14 gusting 39 11.7
2019-Jun-18 18:00 229 19 gusting 41 12.2
2019-Jun-18 17:45 207 16 gusting 45 11.7
2019-Jun-18 17:30 222 21 gusting 39 11.7
2019-Jun-18 17:15 231 22 gusting 39 12.2
2019-Jun-18 17:01 234 25 gusting 42 12.2
2019-Jun-18 16:47 207 31 gusting 49 12.2
2019-Jun-18 16:31 185 22 gusting 47 12.2
2019-Jun-18 16:16 242 25 gusting 48 12.8
2019-Jun-18 16:01 192 20 gusting 43 13.3
2019-Jun-18 15:47 204 23 gusting 45 13.3
2019-Jun-18 15:31 182 27 gusting 56 12.8
2019-Jun-18 15:16 225 26 gusting 52 12.8
2019-Jun-18 15:01 229 19 gusting 47 12.8
2019-Jun-18 14:46 236 26 gusting 52 13.3
2019-Jun-18 14:31 170 29 gusting 47 13.3
2019-Jun-18 14:16 192 22 gusting 49 13.9
2019-Jun-18 14:01 198 26 gusting 49 13.3
2019-Jun-18 13:46 223 27 gusting 53 14.4
2019-Jun-18 13:32 182 23 gusting 48 13.9
2019-Jun-18 13:16 231 26 gusting 49 13.3
2019-Jun-18 13:03 202 30 gusting 52 13.3
2019-Jun-18 12:46 232 29 gusting 50 13.3
2019-Jun-18 12:32 211 19 gusting 41 12.8
2019-Jun-18 12:16 225 24 gusting 44 12.8
2019-Jun-18 12:01 197 30 gusting 55 13.3
2019-Jun-18 11:46 186 20 gusting 46 13.9
2019-Jun-18 11:31 241 26 gusting 46 13.3
2019-Jun-18 11:16 212 24 gusting 45 13.3
2019-Jun-18 11:01 206 29 gusting 48 12.8
2019-Jun-18 10:46 228 22 gusting 44 13.3
2019-Jun-18 10:30 203 24 gusting 44 12.2
2019-Jun-18 10:16 194 18 gusting 39 12.2
2019-Jun-18 10:00 196 17 gusting 38 12.2
2019-Jun-18 09:45 195 15 gusting 43 12.8
2019-Jun-18 09:30 228 17 gusting 48 12.8
2019-Jun-18 09:15 243 19 gusting 46 12.8
2019-Jun-18 09:01 210 17 gusting 45 12.2
2019-Jun-18 08:45 284 23 gusting 50 12.2
2019-Jun-18 08:30 186 22 gusting 46 12.2
2019-Jun-18 08:15 221 18 gusting 49 12.2
2019-Jun-18 08:00 234 17 gusting 42 11.7
2019-Jun-18 07:45 175 14 gusting 48 11.7
2019-Jun-18 07:30 217 14 gusting 40 11.7
2019-Jun-18 07:16 201 13 gusting 42 11.7
2019-Jun-18 07:00 219 14 gusting 39 12.2
2019-Jun-18 06:46 214 16 gusting 46 11.7
2019-Jun-18 06:30 223 13 gusting 38 11.7
2019-Jun-18 06:15 281 16 gusting 46 11.7
2019-Jun-18 06:00 163 19 gusting 42 11.7
2019-Jun-18 05:46 254 15 gusting 39 12.2
2019-Jun-18 05:30 205 20 gusting 42 11.7
2019-Jun-18 05:16 241 18 gusting 40 12.2
2019-Jun-18 05:00 197 16 gusting 46 12.2
2019-Jun-18 04:45 212 10 gusting 41 12.2
2019-Jun-18 04:30 186 17 gusting 44 11.7
2019-Jun-18 04:15 171 9 gusting 30 11.7
2019-Jun-18 04:00 181 10 gusting 46 11.7
2019-Jun-18 03:45 224 11 gusting 39 11.7
2019-Jun-18 03:30 211 13 gusting 39 11.7
2019-Jun-18 03:15 103 17 gusting 52 11.7
2019-Jun-18 03:00 159 16 gusting 43 11.7
2019-Jun-18 02:45 171 16 gusting 39 11.7
2019-Jun-18 02:31 200 19 gusting 47 11.7
2019-Jun-18 02:17 172 13 gusting 36 11.1
2019-Jun-18 02:01 222 17 gusting 39 11.1
2019-Jun-18 01:46 183 12 gusting 43 11.1
2019-Jun-18 01:32 215 16 gusting 39 11.7
2019-Jun-18 01:17 205 17 gusting 40 11.7
2019-Jun-18 01:01 255 22 gusting 45 11.7
2019-Jun-18 00:46 221 13 gusting 45 11.7
2019-Jun-18 00:32 197 22 gusting 39 11.7
2019-Jun-18 00:16 191 10 gusting 35 11.7
2019-Jun-18 00:02 232 19 gusting 41 11.1
2019-Jun-17 23:46 201 19 gusting 46 11.1
2019-Jun-17 23:32 190 22 gusting 53 11.7
2019-Jun-17 23:16 115 22 gusting 62 11.7
2019-Jun-17 23:01 192 18 gusting 48 11.7
2019-Jun-17 22:46 174 13 gusting 43 11.7
2019-Jun-17 22:31 177 22 gusting 54 11.7
2019-Jun-17 22:15 175 19 gusting 39 11.7
2019-Jun-17 22:01 196 15 gusting 38 11.7
2019-Jun-17 21:45 180 18 gusting 53 11.7
2019-Jun-17 21:30 188 13 gusting 41 11.7
2019-Jun-17 21:15 215 15 gusting 39 11.7
2019-Jun-17 21:01 225 14 gusting 46 11.7
2019-Jun-17 20:45 198 19 gusting 35 11.7
2019-Jun-17 20:31 163 15 gusting 39 11.7
2019-Jun-17 20:15 217 17 gusting 45 11.7
2019-Jun-17 20:01 267 18 gusting 33 11.7
2019-Jun-17 19:45 200 21 gusting 47 11.7
2019-Jun-17 19:30 198 17 gusting 46 11.7
2019-Jun-17 19:15 185 19 gusting 39 11.7
2019-Jun-17 19:00 203 15 gusting 42 11.7
2019-Jun-17 18:45 234 17 gusting 46 11.7
2019-Jun-17 18:30 154 19 gusting 43 12.2